User: anonymous   Login
Location: Petruro
(41.0333°N, 14.7833°E)
Time: 15:53:45
(UTC+00:00)
Language:

FALCON 9 DEB - Orbit

View from above orbital plane
View from above orbital plane
View from above satellite
View from above satellite

Ground track
Ground track

The orbit data is extracted from the following two-line orbital elements,

1 46085U 20055BL  21265.14564186  .00024063  00000-0  21696-3 0  9998
2 46085  53.0085  82.2399 0008839 200.3360 159.7304 15.68025330 68816
Epoch (UTC): 22 September 2021 03:29:43
Eccentricity: 0.0008839
inclination: 53.0085°
perigee height: 358 km
apogee height: 370 km
right ascension of ascending node: 82.2399°
argument of perigee: 200.3360°
revolutions per day: 15.68025330
mean anomaly at epoch: 159.7304°
orbit number at epoch: 6881

The dashed part of the orbit path shows where the satellite is in the earth's shadow,  

DLR